Weather History for Lewisburg, WV

Change the Weather History Date:

Friday, January 4, 2013

  Actual Average Record
Temperature  
Mean Temperature 26 °F 28 °F  
Max Temperature 28 °F 38 °F 66 °F (1997)
Min Temperature 23 °F 19 °F 2 °F (1958)
Degree Days  
Heating Degree Days 40    
Month to date heating degree days  
Since 1 July heating degree days  
Cooling Degree Days 0    
Month to date cooling degree days  
Year to date cooling degree days  
Moisture  
Dew Point 15 °F    
Average Humidity 66    
Maximum Humidity 74    
Minimum Humidity 59    
Precipitation  
Precipitation 0.00 in 0.10 in 0.62 in (1982)
Month to date precipitation 0.40  
Year to date precipitation 0.40  
Snow  
Snow 0.00 in - - ()
Month to date snowfall  
Since 1 July snowfall  
Snow Depth -    
Sea Level Pressure  
Sea Level Pressure 30.23 in    
Wind  
Wind Speed 7 mph (WNW)    
Max Wind Speed 15 mph    
Max Gust Speed 20 mph    
Visibility 10 miles    
Events      
T = Trace of Precipitation, MM = Missing Value Source: NWS Daily Summary

Daily Weather History Graph

Daily Weather History Graph

Search for Another Location

Airport:

Trip Planner

Search our weather history database for the weather conditions in past years. The results will help you decide how hot, cold, wet, or windy it might be!

Date:

Astronomy

Jan. 04, 2013 Rise Set
Actual Time 7:37 AM EST 5:16 PM EST
Civil Twilight 7:08 AM EST 5:45 PM EST
Nautical Twilight 6:35 AM EST 6:18 PM EST
Astronomical Twilight 6:03 AM EST 6:49 PM EST
Moon No Moon Rise 11:27 AM EST (1/4)
Length of Visible Light 10h 36m
Length of Day
9h 38m
Waning Gibbous, 55% of the Moon is Illuminated
Jan 4
Waning Gibbous
Jan 4
Last Quarter
Jan 11
New
Jan 18
First Quarter
Jan 26
Full

Hourly Weather History & Observations

Time (EST) Temp. Windchill Dew Point Humidity Pressure Visibility Wind Dir Wind Speed Gust Speed Precip Events Conditions
12:15 AM 26.6 °F 20.0 °F 14.0 °F 59% 30.20 in 10.0 mi West 5.8 mph - N/A   Mostly Cloudy
12:35 AM 26.6 °F 22.6 °F 14.0 °F 59% 30.20 in 10.0 mi West 3.5 mph - N/A   Overcast
12:55 AM 26.6 °F 19.1 °F 14.0 °F 59% 30.20 in 10.0 mi WNW 6.9 mph - N/A   Overcast
1:15 AM 26.6 °F 19.1 °F 14.0 °F 59% 30.19 in 10.0 mi West 6.9 mph - N/A   Overcast
1:35 AM 24.8 °F 16.1 °F 14.0 °F 64% 30.20 in 10.0 mi West 8.1 mph - N/A   Overcast
1:55 AM 24.8 °F 14.6 °F 14.0 °F 64% 30.21 in 10.0 mi West 10.4 mph 16.1 mph N/A   Mostly Cloudy
2:35 AM 23.0 °F 14.7 °F 14.0 °F 68% 30.22 in 10.0 mi West 6.9 mph - N/A   Mostly Cloudy
2:55 AM 23.0 °F 17.0 °F 14.0 °F 68% 30.23 in 10.0 mi WNW 4.6 mph - N/A   Overcast
3:15 AM 23.0 °F 15.8 °F 14.0 °F 68% 30.23 in 10.0 mi NW 5.8 mph - N/A   Overcast
3:35 AM 23.0 °F 17.0 °F 14.0 °F 68% 30.22 in 10.0 mi WNW 4.6 mph - N/A   Overcast
3:55 AM 23.0 °F 12.4 °F 14.0 °F 68% 30.22 in 10.0 mi WNW 10.4 mph 16.1 mph N/A   Overcast
6:35 AM 23.0 °F 14.7 °F 14.0 °F 68% 30.22 in 10.0 mi West 6.9 mph - N/A   Overcast
7:15 AM 23.0 °F 13.1 °F 14.0 °F 68% 30.22 in 10.0 mi WNW 9.2 mph - N/A   Overcast
7:35 AM 23.0 °F 15.8 °F 14.0 °F 68% 30.22 in 10.0 mi WNW 5.8 mph - N/A   Overcast
7:55 AM 23.0 °F 14.7 °F 14.0 °F 68% 30.22 in 10.0 mi WNW 6.9 mph - N/A   Overcast
8:15 AM 23.0 °F 13.9 °F 14.0 °F 68% 30.22 in 10.0 mi WNW 8.1 mph - N/A   Overcast
8:35 AM 23.0 °F 17.0 °F 14.0 °F 68% 30.23 in 10.0 mi West 4.6 mph - N/A   Overcast
8:55 AM 23.0 °F 12.4 °F 14.0 °F 68% 30.24 in 10.0 mi West 10.4 mph 18.4 mph N/A   Overcast
9:15 AM 23.0 °F 13.1 °F 14.0 °F 68% 30.24 in 10.0 mi WNW 9.2 mph 16.1 mph N/A   Overcast
9:55 AM 23.0 °F 15.8 °F 15.8 °F 74% 30.25 in 10.0 mi NW 5.8 mph - N/A   Overcast
10:15 AM 23.0 °F 15.8 °F 15.8 °F 74% 30.26 in 10.0 mi NW 5.8 mph 16.1 mph N/A   Overcast
10:35 AM 23.0 °F 13.1 °F 15.8 °F 74% 30.26 in 10.0 mi WNW 9.2 mph - N/A   Overcast
10:55 AM 24.8 °F 14.0 °F 14.0 °F 64% 30.26 in 10.0 mi West 11.5 mph 18.4 mph N/A   Overcast
11:15 AM 24.8 °F 16.9 °F 14.0 °F 64% 30.25 in 10.0 mi West 6.9 mph - N/A   Overcast
11:55 AM 26.6 °F 14.7 °F 15.8 °F 64% 30.23 in 10.0 mi West 15.0 mph 18.4 mph N/A   Overcast
12:15 PM 28.4 °F 17.5 °F 15.8 °F 59% 30.22 in 10.0 mi West 13.8 mph 19.6 mph N/A   Overcast
12:35 PM 26.6 °F 18.2 °F 15.8 °F 64% 30.21 in 10.0 mi WNW 8.1 mph 17.3 mph N/A   Overcast
12:55 PM 28.4 °F 19.7 °F 15.8 °F 59% 30.21 in 10.0 mi NW 9.2 mph - N/A   Overcast
1:15 PM 28.4 °F 18.5 °F 15.8 °F 59% 30.20 in 10.0 mi NW 11.5 mph 16.1 mph N/A   Mostly Cloudy
1:35 PM 26.6 °F 16.8 °F 15.8 °F 64% 30.20 in 10.0 mi NW 10.4 mph 17.3 mph N/A   Mostly Cloudy
1:55 PM 26.6 °F 17.5 °F 15.8 °F 64% 30.19 in 10.0 mi WNW 9.2 mph - N/A   Scattered Clouds
2:15 PM 28.4 °F 19.1 °F 15.8 °F 59% 30.19 in 10.0 mi NW 10.4 mph 17.3 mph N/A   Clear
2:35 PM 26.6 °F 17.5 °F 14.0 °F 59% 30.19 in 10.0 mi NW 9.2 mph 17.3 mph N/A   Clear
2:55 PM 28.4 °F 19.1 °F 15.8 °F 59% 30.20 in 10.0 mi WNW 10.4 mph 16.1 mph N/A   Clear
3:15 PM 26.6 °F 18.2 °F 15.8 °F 64% 30.20 in 10.0 mi NW 8.1 mph - N/A   Clear
3:35 PM 26.6 °F 16.8 °F 15.8 °F 64% 30.22 in 10.0 mi NW 10.4 mph - N/A   Scattered Clouds
3:55 PM 26.6 °F 18.2 °F 15.8 °F 64% 30.21 in 10.0 mi WNW 8.1 mph - N/A   Scattered Clouds
4:15 PM 26.6 °F 18.2 °F 15.8 °F 64% 30.20 in 10.0 mi WNW 8.1 mph - N/A   Clear
4:35 PM 26.6 °F 21.2 °F 15.8 °F 64% 30.21 in 10.0 mi West 4.6 mph - N/A   Clear
4:55 PM 26.6 °F 22.6 °F 15.8 °F 64% 30.22 in 10.0 mi WNW 3.5 mph - N/A   Mostly Cloudy
5:15 PM 26.6 °F 18.2 °F 15.8 °F 64% 30.22 in 10.0 mi NW 8.1 mph - N/A   Overcast
5:35 PM 26.6 °F 20.0 °F 15.8 °F 64% 30.23 in 10.0 mi NW 5.8 mph - N/A   Overcast
5:55 PM 26.6 °F 19.1 °F 15.8 °F 64% 30.24 in 10.0 mi WNW 6.9 mph - N/A   Overcast
6:15 PM 26.6 °F 21.2 °F 17.6 °F 69% 30.24 in 10.0 mi WNW 4.6 mph - N/A   Overcast
6:35 PM 26.6 °F 18.2 °F 17.6 °F 69% 30.25 in 10.0 mi WNW 8.1 mph - N/A   Overcast
6:55 PM 26.6 °F 20.0 °F 17.6 °F 69% 30.25 in 10.0 mi West 5.8 mph - N/A   Overcast
7:15 PM 26.6 °F 22.6 °F 17.6 °F 69% 30.26 in 10.0 mi WNW 3.5 mph - N/A   Overcast
7:35 PM 26.6 °F 19.1 °F 17.6 °F 69% 30.26 in 10.0 mi West 6.9 mph 16.1 mph N/A   Overcast
7:55 PM 26.6 °F 22.6 °F 17.6 °F 69% 30.26 in 10.0 mi West 3.5 mph - N/A   Scattered Clouds
8:15 PM 26.6 °F 19.1 °F 17.6 °F 69% 30.26 in 10.0 mi West 6.9 mph - N/A   Clear
8:35 PM 26.6 °F 19.1 °F 17.6 °F 69% 30.27 in 10.0 mi West 6.9 mph - N/A   Clear
8:55 PM 26.6 °F 19.1 °F 17.6 °F 69% 30.27 in 10.0 mi WNW 6.9 mph - N/A   Clear
9:15 PM 26.6 °F 21.2 °F 17.6 °F 69% 30.26 in 10.0 mi West 4.6 mph - N/A   Clear
9:35 PM 26.6 °F 21.2 °F 15.8 °F 64% 30.26 in 10.0 mi WNW 4.6 mph - N/A   Scattered Clouds
9:55 PM 26.6 °F 18.2 °F 15.8 °F 64% 30.26 in 10.0 mi WNW 8.1 mph - N/A   Clear
10:15 PM 26.6 °F 18.2 °F 15.8 °F 64% 30.26 in 10.0 mi WNW 8.1 mph 16.1 mph N/A   Clear
10:35 PM 26.6 °F 20.0 °F 15.8 °F 64% 30.26 in 10.0 mi WNW 5.8 mph - N/A   Clear
10:55 PM 26.6 °F 21.2 °F 15.8 °F 64% 30.27 in 10.0 mi West 4.6 mph - N/A   Clear
11:15 PM 24.8 °F - 15.8 °F 69% 30.27 in 10.0 mi Calm Calm - N/A   Clear
11:35 PM 24.8 °F 17.9 °F 15.8 °F 69% 30.28 in 10.0 mi West 5.8 mph - N/A   Clear
11:55 PM 24.8 °F 17.9 °F 15.8 °F 69% 30.27 in 10.0 mi West 5.8 mph - N/A   Clear